Date,TemperatureHighF,TemperatureAvgF,TemperatureLowF,DewpointHighF,DewpointAvgF,DewpointLowF,HumidityHigh,HumidityAvg,HumidityLow,PressureMaxIn,PressureMinIn,WindSpeedMaxMPH,WindSpeedAvgMPH,GustSpeedMaxMPH,PrecipitationSumIn
2013-3-1,24,17,13,18,12,9,85,81,70,30.27,30.12,17,12,20,0.00
2013-3-2,24,16,9,14,10,5,85,78,61,30.26,30.14,19,9,21,0.00
2013-3-3,22,13,4,12,7,0,88,79,62,30.16,30.09,12,6,15,0.00
2013-3-4,28,15,4,13,7,0,89,72,49,30.22,30.14,13,5,14,0.00
2013-3-5,30,20,10,26,15,6,88,80,66,30.25,30.12,10,4,17,0.00
2013-3-6,34,30,27,30,27,24,94,87,83,30.27,30.16,9,4,14,0.00
2013-3-7,34,29,25,27,25,22,94,86,76,30.44,30.25,15,9,20,0.00
2013-3-8,36,29,19,31,26,18,95,90,81,30.54,30.42,8,2,11,0.00
2013-3-9,40,32,21,32,29,20,96,89,64,30.42,30.10,18,6,23,0.01
2013-3-10,38,36,33,37,34,32,97,95,93,29.98,29.86,10,3,23,0.19
2013-3-11,45,37,33,44,36,32,97,96,93,29.94,29.39,20,6,24,0.11
2013-3-12,37,29,22,37,26,20,97,89,76,29.87,29.39,15,7,27,0.21
2013-3-13,23,20,15,20,14,9,91,78,63,30.17,29.86,25,12,33,0.00
2013-3-14,30,22,12,23,9,-1,75,59,39,30.28,30.01,17,8,22,0.00
2013-3-15,32,26,19,29,19,10,92,76,59,30.03,29.80,24,13,30,0.00
2013-3-16,19,13,8,12,4,1,82,67,54,30.09,30.02,13,7,18,0.00
2013-3-17,22,13,6,17,4,-3,89,69,46,30.43,30.05,21,8,26,0.00
2013-3-18,34,20,3,26,15,0,94,83,57,30.34,29.60,27,10,34,0.00
2013-3-19,31,28,24,29,25,19,96,90,81,29.76,29.47,20,10,30,0.02
2013-3-20,28,24,19,24,19,15,91,82,69,29.82,29.76,20,10,25,0.01
2013-3-21,29,24,20,24,18,15,91,78,62,29.89,29.79,18,11,27,0.00
2013-3-22,35,25,16,23,19,13,87,77,59,30.04,29.89,17,10,22,0.01
2013-3-23,39,29,19,24,22,16,91,76,54,30.13,30.04,18,7,24,0.01
2013-3-24,33,28,23,25,21,19,84,76,60,30.13,29.91,16,4,23,0.00
2013-3-25,39,33,28,30,28,24,86,80,61,29.99,29.88,14,7,18,0.00
2013-3-26,41,35,31,29,26,19,81,71,42,30.08,29.99,16,9,25,0.00
2013-3-27,41,35,31,30,28,25,88,74,57,30.19,30.06,16,10,23,0.00
2013-3-28,45,37,32,31,27,13,88,71,38,30.25,30.19,17,7,21,0.00
2013-3-29,45,35,28,31,25,19,87,69,41,30.29,30.21,14,5,20,0.00
2013-3-30,45,36,25,34,25,20,89,68,37,30.23,29.86,15,4,24,0.00
2013-3-31,40,36,26,37,34,21,96,91,81,29.85,29.56,16,5,27,0.21